This demonstration page uses our WeatherBlox Daily Observations layout. Learn more.

Left ArrowRight Arrow

39.51506, -84.39828

Hourly Observations for May 13, 2016

Temp ( °F °C ) Dew Point ( °F °C ) Humidity (%) Winds ( mph kmh ) Pressure ( in mb ) Visibility ( mi km ) Precip ( " mm )
12:15 am 00:15 Cloudy 62 16.6 56 13.5 82 82 undefined N/A 29.94 1014 10 16.0934 N/A
12:35 am 00:35 Cloudy 62 16.6 56 13.5 82 82 SSW 6 9 29.94 1014 10 16.0934 N/A
12:55 am 00:55 Cloudy 62 16.6 56 13.1 80 80 S 7 11 29.94 1014 10 16.0934 N/A
1:15 am 01:15 Cloudy 62 16.6 55 13 79 79 SSW 6 9 29.94 1014 10 16.0934 N/A
1:35 am 01:35 Cloudy 62 16.6 56 13.1 80 80 SSW 6 9 29.94 1014 10 16.0934 N/A
1:55 am 01:55 Cloudy 62 16.6 55 13 79 79 S 5 7 29.94 1014 10 16.0934 N/A
2:15 am 02:15 Cloudy 62 16.5 55 12.7 78 78 W 7 11 29.94 1014 10 16.0934 N/A
2:35 am 02:35 Mostly Cloudy 61 16 54 12 77 77 NNW 7 11 29.94 1014 10 16.0934 N/A
2:55 am 02:55 Clear 60 15.3 52 11.3 77 77 NNW 7 11 29.94 1014 10 16.0934 N/A
3:15 am 03:15 Clear 60 15.3 52 11.2 77 77 NNW 7 11 29.94 1014 10 16.0934 N/A
3:35 am 03:35 Clear 60 15.3 52 11 76 76 NNW 8 13 29.94 1014 10 16.0934 N/A
3:55 am 03:55 Clear 60 15.3 51 10.6 74 74 NNW 7 11 29.94 1014 10 16.0934 N/A
4:15 am 04:15 Clear 57 13.8 49 9.4 75 75 SSW 5 7 29.97 1015 10 16.0934 N/A
4:35 am 04:35 Clear 57 13.8 50 10 78 78 SSW 5 7 30 1016 10 16.0934 N/A
4:55 am 04:55 Clear 57 13.8 50 9.9 78 78 NNW 5 7 30 1016 10 16.0934 N/A
5:15 am 05:15 Clear 57 13.8 49 9.6 76 76 SSW 3 6 30 1016 10 16.0934 N/A
5:35 am 05:35 Clear 55 12.5 47 8.6 77 77 W 6 9 30 1016 10 16.0934 N/A
5:55 am 05:55 Clear 55 12.5 47 8.5 77 77 NNW 6 9 30 1016 10 16.0934 N/A
6:15 am 06:15 Clear 55 12.5 47 8.5 77 77 SSW 3 6 30 1016 10 16.0934 N/A
6:35 am 06:35 Sunny 55 12.5 47 8.6 77 77 S 5 7 30.03 1017 10 16.0934 N/A
6:55 am 06:55 Sunny 55 12.5 47 8.6 77 77 S 3 6 30.03 1017 10 16.0934 N/A
7:15 am 07:15 Sunny 55 12.5 47 8.6 77 77 SSW 5 7 30.03 1017 10 16.0934 N/A
7:35 am 07:35 Sunny 57 13.8 49 9.3 74 74 SSW 6 9 30.03 1017 10 16.0934 N/A
7:55 am 07:55 Sunny 57 13.8 48 9 73 73 NW 5 7 30.03 1017 10 16.0934 N/A
8:15 am 08:15 Sunny 57 14 47 8.6 70 70 NNW 7 11 30.03 1017 10 16.0934 N/A
8:35 am 08:35 Sunny 60 15.3 48 9.1 67 67 NNW 8 13 30.03 1017 10 16.0934 N/A
8:55 am 08:55 Sunny 60 15.3 47 8.3 63 63 undefined N/A 30.06 1018 10 16.0934 N/A
9:15 am 09:15 Partly Cloudy 60 15.3 46 7.7 61 61 NNW 9 15 30.06 1018 10 16.0934 N/A
9:35 am 09:35 Partly Cloudy 60 15.8 46 7.6 58 58 NNW 9 15 30.03 1017 10 16.0934 N/A
9:55 am 09:55 Partly Cloudy 61 16 45 7.1 56 56 NNW 8 13 30.03 1017 10 16.0934 N/A
10:15 am 10:15 Mostly Cloudy 60 15.7 44 6.6 55 55 undefined N/A 30.06 1018 10 16.0934 N/A
10:35 am 10:35 Mostly Cloudy 61 16 44 6.5 54 54 NNW 13 20 30.03 1017 10 16.0934 N/A
10:55 am 10:55 Mostly Cloudy 60 15.8 43 5.9 52 52 W 8 13 30.03 1017 10 16.0934 N/A
11:15 am 11:15 Mostly Cloudy 62 16.6 44 6.4 51 51 N 14 22 30.03 1017 10 16.0934 N/A
11:35 am 11:35 Mostly Cloudy 61 16.2 42 5.8 50 50 undefined N/A 30.03 1017 10 16.0934 N/A
11:55 am 11:55 Mostly Cloudy 62 16.7 42 5.8 49 49 N 12 19 30.03 1017 10 16.0934 N/A
12:15 pm 12:15 Mostly Cloudy 64 18 44 6.5 47 47 WSW 10 17 30.03 1017 10 16.0934 N/A
12:35 pm 12:35 Mostly Cloudy 62 16.9 42 5.3 47 47 WSW 9 15 30.03 1017 10 16.0934 N/A
12:55 pm 12:55 Mostly Cloudy 67 19.5 44 6.8 44 44 NNW 9 15 30.03 1017 10 16.0934 N/A
1:15 pm 13:15 Mostly Cloudy 65 18.2 44 6.4 46 46 NNW 12 19 30.03 1017 10 16.0934 N/A
1:35 pm 13:35 Mostly Cloudy 65 18.1 43 6.2 46 46 SSW 12 19 30.03 1017 10 16.0934 N/A
1:55 pm 13:55 Mostly Cloudy 64 18 42 5.4 44 44 NNW 10 17 30.03 1017 10 16.0934 N/A
2:15 pm 14:15 Mostly Cloudy 64 18 42 5.6 44 44 NNW 10 17 30.03 1017 10 16.0934 N/A
2:35 pm 14:35 Mostly Cloudy 67 19.2 43 5.9 42 42 NNW 12 19 30.03 1017 10 16.0934 N/A
2:55 pm 14:55 Mostly Cloudy 67 19.7 44 6.6 43 43 NW 9 15 30.03 1017 10 16.0934 N/A
3:15 pm 15:15 Mostly Cloudy 69 20.8 44 6.6 40 40 NNW 9 15 30 1016 10 16.0934 N/A
3:35 pm 15:35 Partly Cloudy 69 20.8 44 6.8 40 40 NNW 6 9 30 1016 10 16.0934 N/A
3:55 pm 15:55 Partly Cloudy 69 20.8 45 7.1 41 41 NNW 13 20 30 1016 10 16.0934 N/A
4:15 pm 16:15 Sunny 69 20.8 44 6.4 39 39 SSW 9 15 30 1016 10 16.0934 N/A
4:35 pm 16:35 Sunny 69 20.8 43 6 38 38 SW 6 9 29.97 1015 10 16.0934 N/A
4:55 pm 16:55 Sunny 69 20.8 43 6 38 38 SSW 12 19 29.97 1015 10 16.0934 N/A
5:15 pm 17:15 Sunny 69 20.8 42 5.3 36 36 SSW 5 7 29.97 1015 10 16.0934 N/A
5:35 pm 17:35 Sunny 69 20.8 41 5.2 36 36 NNW 9 15 29.97 1015 10 16.0934 N/A
5:55 pm 17:55 Sunny 69 20.8 40 4.2 34 34 WNW 12 19 29.97 1015 10 16.0934 N/A
6:15 pm 18:15 Sunny 69 20.8 41 5.1 36 36 N 7 11 29.97 1015 10 16.0934 N/A
6:35 pm 18:35 Partly Cloudy 69 20.8 40 4.7 35 35 SSW 8 13 29.97 1015 10 16.0934 N/A
6:55 pm 18:55 Mostly Cloudy 69 20.8 40 4.5 34 34 NNW 8 13 29.97 1015 10 16.0934 N/A
7:15 pm 19:15 Partly Cloudy 69 20.8 43 6.1 39 39 NNW 8 13 29.94 1014 10 16.0934 N/A
7:35 pm 19:35 Partly Cloudy 67 19.5 43 5.9 41 41 S 7 11 29.94 1014 10 16.0934 N/A
7:55 pm 19:55 Partly Cloudy 69 20.7 43 6.3 39 39 SSW 6 9 29.94 1014 10 16.0934 N/A
8:15 pm 20:15 Partly Cloudy 64 18 44 6.6 47 47 SSW 5 7 29.94 1014 10 16.0934 N/A
8:35 pm 20:35 Partly Cloudy 62 16.6 45 7.1 54 54 undefined N/A 29.94 1014 10 16.0934 N/A
8:55 pm 20:55 Clear 60 15.3 46 7.8 61 61 undefined N/A 29.94 1014 10 16.0934 N/A
9:15 pm 21:15 Clear 57 13.8 48 9.1 73 73 S 5 7 29.94 1014 10 16.0934 N/A
9:35 pm 21:35 Clear 56 13.2 49 9.2 77 77 SSW 3 6 29.97 1015 10 16.0934 N/A
9:55 pm 21:55 Clear 57 13.8 49 9.6 76 76 undefined N/A 29.94 1014 10 16.0934 N/A
10:15 pm 22:15 Clear 56 13.4 49 9.5 77 77 N 3 6 29.94 1014 10 16.0934 N/A
10:35 pm 22:35 Clear 55 12.7 48 8.7 77 77 N N/A 29.94 1014 10 16.0934 N/A
10:55 pm 22:55 Clear 56 13.1 48 9 76 76 N N/A 29.94 1014 10 16.0934 N/A
11:15 pm 23:15 Clear 55 12.5 48 8.7 78 78 N N/A 29.94 1014 10 16.0934 N/A
11:35 pm 23:35 Clear 55 12.5 48 8.8 78 78 N N/A 29.94 1014 10 16.0934 N/A
11:55 pm 23:55 Clear 55 12.5 48 9 79 79 undefined N/A 29.94 1014 10 16.0934 N/A

Powered by AerisWeather